Location: *
(40.9167°N, 9.5000°E)
Time: 01:57:02
(UTC+00:00)

SL-08 RB Rocket - Pass Details

Date: 09 April 2020
Orbit: 646 x 685 km, 97.8° (Epoch: 05 June)

Event Time Altitude Azimuth Distance (km) Brightness Sun altitude
Exits shadow 18:56:15 10° 150° (SSE) 2,114 5.8 -11.8°
Reaches altitude 10° 18:56:21 10° 150° (SSE) 2,078 5.8 -11.8°
Maximum altitude 19:00:46 54° 73° (ENE) 817 3.9 -12.6°
Drops below altitude 10° 19:05:16 10° 357° (N) 2,117 6.6 -13.4°
Sets 19:07:33 0° 353° (N) 3,041 7.6 -13.8°
